Weather Roundup
Issued by NWS Chicago, IL

Home | Current Version | Previous Version | Graphics & Text | Print | Product List | Glossary On
Versions: 1 2 3 4 5 6 7 8 9 10 11 12 13 14 15 16 17 18 19 20 21 22 23 24 25 26 27 28 29 30 31 32 33 34 35 36 37 38 39 40 41 42 43 44 45 46 47 48 49 50
660
NZUS59 KLOT 051203
HRRLOT

CHICAGO AREA WEATHER ROUNDUP
NATIONAL WEATHER SERVICE CHICAGO/ROMEOVILLE IL
700 AM CDT THU MAY 05 2016

NOTE: "FAIR" INDICATES FEW OR NO CLOUDS BELOW 12,000 FEET WITH NO
SIGNIFICANT WEATHER AND/OR OBSTRUCTIONS TO VISIBILITY.

* THESE STATIONS ARE NOT UNDER NWS QUALITY CONTROL. THEY ALSO MAY NOT
  REPORT WEATHER SUCH AS PRECIPITATION OR FOG.

ILZ005-006-012>014-019>023-051300-
NORTHEAST ILLINOIS

CITY           SKY/WX    TMP DP  RH WIND       PRES   REMARKS
OHARE          MOSUNNY   42  34  73 N15       29.95R
6HR MIN TEMP:  41; 6HR MAX TEMP:  43;

MIDWAY         PTSUNNY   43  34  70 N13       29.95R
6HR MIN TEMP:  42; 6HR MAX TEMP:  44; 6HR PCP: TRACE;

AURORA         SUNNY     42  34  73 N10       29.97R
6HR MIN TEMP:  38; 6HR MAX TEMP:  42;

LANSING*       CLOUDY    42  37  82 N15G22    29.94R
WAUKEGAN       SUNNY     41  34  76 N7        29.96R
6HR MIN TEMP:  39; 6HR MAX TEMP:  42;

DUPAGE AIRPORT SUNNY     41  33  73 N10       29.95R
6HR MIN TEMP:  39; 6HR MAX TEMP:  42;

WHEELING       SUNNY     42  34  73 N10       29.97R
6HR MIN TEMP:  40; 6HR MAX TEMP:  43;

$$

WIZ051-052-058>065-066-070>072-051300-
SOUTHEAST WISCONSIN

CITY           SKY/WX    TMP DP  RH WIND       PRES   REMARKS
MILWAUKEE      PTSUNNY   42  33  70 N17G23    29.98R
6HR MIN TEMP:  40; 6HR MAX TEMP:  42;

KENOSHA*       SUNNY     40  33  76 N5        29.97R
RACINE*        CLOUDY    42  33  70 N17       29.99R
BURLINGTON     PTSUNNY   37  32  82 N6        29.97R
WAUKESHA       PTSUNNY   37  32  81 NW6       29.99R
$$

INZ001>003-010>013-019-020-051300-
NORTHWEST INDIANA

CITY           SKY/WX    TMP DP  RH WIND       PRES   REMARKS
GARY*          CLOUDY    43  43 100 N17       29.94R
MICHIGAN CITY* NOT AVBL
RENSSELAER*    NOT AVBL
VALPARAISO     CLOUDY    41  39  93 N14G21    29.90R
$$

LMZ740>746-051300-
SOUTHERN LAKE MICHIGAN

STATION/POSITION TIME  SKY/WX   TEMP WIND        PRES    VSBY
                                AIR  DIR/SP/G
                 (UTC)          (F)  (DEG/KT/KT) (MB)    (MI)
HARRISON CRIB    NOT AVBL
BURNHAM HARBOR   1200            42   10/ 16/ 22   N/A
CALUMET HARBOR   1100            41  330/ 15/ 22 1012.8R
BURNS HARBOR     1114            42  360/ 18/ 22 1013.2R
MICHIGAN CITY    1150            42  350/ 20/ 23   N/A
$$

ABBREVIATIONS USED IN REMARKS
   TC - TEMPERATURE IN CELSIUS
  WCI - WIND CHILL INDEX
   HX - HEAT INDEX
  VSB - VISIBILITY
$$




USA.gov is the U.S. government's official web portal to all federal, state and local government web resources and services.